Location: ?????
(38.3715°N, 23.0573°E)
Time: 10:31:28
(UTC+00:00)

Terra - Pass Details

Date: 03 August 2024
Orbit: 690 x 695 km, 98.0° (Epoch: 15 September)

Event Time Altitude Azimuth Distance (km) Brightness Sun altitude
Exits shadow 18:53:35 20° 106° (ESE) 1,582 3.1 -14.2°
Maximum altitude 18:55:34 27° 69° (ENE) 1,334 3.0 -14.5°
Drops below altitude 10° 18:59:30 10° 12° (NNE) 2,163 4.7 -15.1°
Sets 19:02:02 0° 1° (N) 3,084 5.7 -15.5°
